Vicksburg, LA

11:16 AM CDT on March 25, 2017 (GMT -0500)
Vicksburg Tallulah Regional

Weather History for KTVR - April, 2013

Change the Weather History Date:

Monday, April 29, 2013

  Actual Average Record
Temperature  
Mean Temperature 70 °F 68 °F  
Max Temperature 83 °F 79 °F 91 °F (1955)
Min Temperature 56 °F 57 °F 40 °F (1965)
Degree Days  
Heating Degree Days 0 1  
Month to date heating degree days 124 98  
Since 1 July heating degree days 2280 2339  
Cooling Degree Days 5 4  
Month to date cooling degree days 94 81  
Year to date cooling degree days 119 113  
Growing Degree Days 20 (Base 50)    
Moisture  
Dew Point 59 °F    
Average Humidity 68    
Maximum Humidity 100    
Minimum Humidity 36    
Precipitation  
Precipitation 0.00 in 0.15 in 6.32 in (1991)
Month to date precipitation 4.39 4.80  
Year to date precipitation 30.18 20.17  
Sea Level Pressure  
Sea Level Pressure 29.96 in    
Wind  
Wind Speed 1 mph (ESE)    
Max Wind Speed 7 mph    
Max Gust Speed 9 mph    
Visibility 6 miles    
Events Fog    
T = Trace of Precipitation, MM = Missing Value Source: NWS Daily Summary

Daily Weather History Graph

Daily Weather History Graph

Search for Another Location

Airport or City:

Trip Planner

Search our weather history database for the weather conditions in past years. The results will help you decide how hot, cold, wet, or windy it might be!

Date:

Astronomy

Apr. 29, 2013 Rise Set
Actual Time 6:19 AM CDT 7:43 PM CDT
Civil Twilight 5:53 AM CDT 8:09 PM CDT
Nautical Twilight 5:22 AM CDT 8:41 PM CDT
Astronomical Twilight 4:50 AM CDT 9:13 PM CDT
Moon No Moon Rise 9:45 AM CDT (4/29)
Length of Visible Light 14h 16m
Length of Day
13h 24m
Waning Gibbous, 80% of the Moon is Illuminated
Apr 29
Waning Gibbous
May 2
Last Quarter
May 9
New
May 17
First Quarter
May 24
Full

Hourly Weather History & Observations

Time (CDT) Temp. Heat Index Dew Point Humidity Pressure Visibility Wind Dir Wind Speed Gust Speed Precip Events Conditions
12:53 AM 66.0 °F - 63.0 °F 90% 29.99 in 10.0 mi SE 6.9 mph - 0.04 in   Overcast
1:53 AM 63.0 °F - 62.1 °F 97% 29.97 in 6.0 mi ESE 4.6 mph - N/A   Clear
2:53 AM 60.1 °F - 60.1 °F 100% 29.96 in 1.2 mi Calm Calm - 0.01 in   Clear
3:01 AM 60.8 °F - 59.0 °F 94% 29.94 in 0.2 mi Calm Calm - N/A Fog Fog
3:30 AM 59.0 °F - 57.2 °F 94% 29.93 in 0.2 mi Calm Calm - N/A Fog Fog
3:53 AM 57.9 °F - 57.0 °F 97% 29.96 in 0.2 mi Calm Calm - N/A Fog Fog
4:53 AM 59.0 °F - 59.0 °F 100% 29.96 in 0.2 mi Calm Calm - N/A Fog Fog
5:42 AM 59.0 °F - 57.2 °F 94% 29.94 in 0.2 mi SE 3.5 mph - N/A Fog Fog
5:53 AM 59.0 °F - 57.9 °F 96% 29.97 in 0.2 mi SE 3.5 mph - N/A Fog Fog
6:39 AM 57.2 °F - 57.2 °F 100% 29.97 in 0.2 mi Calm Calm - N/A Fog Fog
6:53 AM 59.0 °F - 57.9 °F 96% 30.00 in 0.8 mi SSE 3.5 mph - N/A   Overcast
6:57 AM 60.8 °F - 59.0 °F 94% 29.98 in 2.0 mi SSE 3.5 mph - N/A   Overcast
7:16 AM 60.8 °F - 60.8 °F 100% 29.99 in 4.0 mi Calm Calm - N/A   Mostly Cloudy
7:23 AM 62.6 °F - 60.8 °F 94% 29.99 in 4.0 mi Calm Calm - N/A   Partly Cloudy
7:53 AM 63.0 °F - 62.1 °F 97% 30.02 in 10.0 mi SSE 3.5 mph - N/A   Clear
8:53 AM 66.0 °F - 63.0 °F 90% 30.02 in 10.0 mi Calm Calm - N/A   Clear
9:53 AM 70.0 °F - 64.9 °F 84% 30.02 in 10.0 mi Calm Calm - N/A   Partly Cloudy
10:53 AM 73.9 °F - 66.0 °F 76% 30.02 in 10.0 mi Calm Calm - N/A   Clear
11:53 AM 77.0 °F - 66.0 °F 69% 30.01 in 10.0 mi Calm Calm - N/A   Clear
12:53 PM 79.0 °F - 63.0 °F 58% 29.99 in 10.0 mi Calm Calm - N/A   Clear
1:53 PM 81.0 °F 80.7 °F 55.0 °F 41% 29.98 in 10.0 mi NNE 4.6 mph - N/A   Clear
2:53 PM 81.0 °F 81.3 °F 59.0 °F 47% 29.96 in 10.0 mi East 3.5 mph - N/A   Clear
3:53 PM 82.0 °F 81.6 °F 55.9 °F 41% 29.93 in 10.0 mi Calm Calm - N/A   Clear
4:53 PM 82.0 °F 81.4 °F 55.0 °F 39% 29.91 in 10.0 mi East 3.5 mph - N/A   Clear
5:53 PM 81.0 °F - 51.1 °F 35% 29.91 in 10.0 mi Calm Calm - N/A   Clear
6:53 PM 79.0 °F - 57.0 °F 47% 29.90 in 10.0 mi Calm Calm - N/A   Clear
7:53 PM 68.0 °F - 59.0 °F 73% 29.91 in 10.0 mi Calm Calm - N/A   Clear
8:53 PM 62.1 °F - 57.9 °F 86% 29.92 in 10.0 mi Calm Calm - N/A   Clear
9:53 PM 62.1 °F - 57.9 °F 86% 29.93 in 10.0 mi Calm Calm - N/A   Clear
10:53 PM 59.0 °F - 57.0 °F 93% 29.93 in 10.0 mi Calm Calm - N/A   Clear
11:53 PM 57.9 °F - 55.0 °F 90% 29.94 in 10.0 mi Calm Calm - N/A   Clear